Location: Asheville, NC
(35.6000°N, 82.5500°W)
Time: 05:25:02
(UTC-05:00)

Envisat - Pass Details

Date: 16 February 2018
Orbit: 764 x 766 km, 98.2° (Epoch: 17 February)

Event Time Altitude Azimuth Distance (km) Brightness Sun altitude
Exits shadow 20:18:01 11° 177° (S) 2,195 5.3 -26.0°
Maximum altitude 20:22:47 66° 259° (WSW) 831 3.3 -26.9°
Drops below altitude 10° 20:27:50 10° 341° (NNW) 2,303 5.7 -28.0°
Sets 20:30:10 0° 345° (NNW) 3,233 6.5 -28.4°
